Middletown, PA

9:06 AM EDT on April 25, 2018 (GMT -0400)
Harrisburg International

Weather History for KMDT - June, 2012

Change the Weather History Date:

Wednesday, June 20, 2012

  Actual Average Record
Temperature  
Mean Temperature 81 °F 73 °F  
Max Temperature 93 °F 83 °F 98 °F (1931)
Min Temperature 69 °F 64 °F 48 °F (1926)
Degree Days  
Heating Degree Days 0 0  
Month to date heating degree days 12 17  
Since 1 June heating degree days 12 17  
Since 1 July heating degree days 4304 5268  
Cooling Degree Days 16 8  
Month to date cooling degree days 87 120  
Year to date cooling degree days 216 185  
Since 1 June cooling degree days 87 120  
Growing Degree Days 30 (Base 50)    
Moisture  
Dew Point 70 °F    
Average Humidity 71    
Maximum Humidity 97    
Minimum Humidity 44    
Precipitation  
Precipitation 0.00 in 0.11 in 2.27 in (1987)
Month to date precipitation 3.02 2.39  
Year to date precipitation 17.47 17.92  
Sea Level Pressure  
Sea Level Pressure 30.07 in    
Wind  
Wind Speed 3 mph (WNW)    
Max Wind Speed 10 mph    
Max Gust Speed 14 mph    
Visibility 6 miles    
Events      
T = Trace of Precipitation, MM = Missing Value Source: NWS Daily Summary

Daily Weather History Graph

Daily Weather History Graph

Search for Another Location

Airport or City:

Astronomy

Jun. 20, 2012 Rise Set
Actual Time 5:37 AM EDT 8:39 PM EDT
Civil Twilight 5:04 AM EDT 9:12 PM EDT
Nautical Twilight 4:22 AM EDT 9:54 PM EDT
Astronomical Twilight 3:33 AM EDT 10:44 PM EDT
Moon 6:35 AM EDT (6/20) 9:24 PM EDT (6/20)
Length of Visible Light 16h 08m
Length of Day
15h 02m
New Moon, 1% of the Moon is Illuminated
Jun 20
New Moon
Jun 26
First Quarter
Jul 3
Full
Jul 10
Last Quarter
Jul 19
New

Hourly Weather History & Observations

Time (EDT) Temp. Heat Index Dew Point Humidity Pressure Visibility Wind Dir Wind Speed Gust Speed Precip Events Conditions
12:56 AM 75.0 °F - 71.1 °F 87% 30.08 in 6.0 mi ENE 3.5 mph - N/A   Clear
1:56 AM 73.0 °F - 70.0 °F 90% 30.07 in 4.0 mi SSE 3.5 mph - N/A   Clear
2:56 AM 72.0 °F - 70.0 °F 93% 30.08 in 3.0 mi ESE 3.5 mph - N/A   Partly Cloudy
3:56 AM 71.1 °F - 69.1 °F 93% 30.07 in 2.5 mi Calm Calm - N/A   Clear
4:20 AM 69.8 °F - 68.0 °F 94% 30.08 in 1.5 mi Calm Calm - N/A   Clear
4:39 AM 69.8 °F - 68.0 °F 94% 30.09 in 2.5 mi Calm Calm - N/A   Clear
4:56 AM 69.1 °F - 66.9 °F 93% 30.09 in 2.5 mi Calm Calm - N/A   Mostly Cloudy
5:35 AM 69.8 °F - 68.0 °F 94% 30.10 in 1.8 mi Calm Calm - N/A   Clear
5:56 AM 70.0 °F - 68.0 °F 93% 30.10 in 1.5 mi Calm Calm - N/A   Scattered Clouds
6:56 AM 72.0 °F - 69.1 °F 91% 30.12 in 1.5 mi NNW 3.5 mph - N/A   Clear
7:08 AM 73.4 °F - 69.8 °F 88% 30.12 in 2.0 mi Calm Calm - N/A   Clear
7:56 AM 75.0 °F - 71.1 °F 87% 30.12 in 2.5 mi Calm Calm - N/A   Clear
8:04 AM 75.2 °F - 71.6 °F 89% 30.13 in 3.0 mi WNW 4.6 mph - N/A   Clear
8:56 AM 79.0 °F - 71.1 °F 77% 30.12 in 3.0 mi NW 8.1 mph - N/A   Haze
9:56 AM 82.9 °F 87.5 °F 71.1 °F 67% 30.12 in 7.0 mi NW 5.8 mph - N/A   Clear
10:56 AM 87.1 °F 92.0 °F 70.0 °F 57% 30.11 in 10.0 mi WNW 8.1 mph - N/A   Clear
11:56 AM 87.1 °F 92.8 °F 71.1 °F 59% 30.10 in 10.0 mi WNW 8.1 mph - N/A   Clear
12:56 PM 88.0 °F 94.7 °F 72.0 °F 59% 30.09 in 10.0 mi WNW 6.9 mph - N/A   Partly Cloudy
1:56 PM 91.0 °F 96.6 °F 70.0 °F 50% 30.07 in 10.0 mi WNW 6.9 mph - N/A   Partly Cloudy
2:56 PM 91.0 °F 96.6 °F 70.0 °F 50% 30.05 in 10.0 mi West 5.8 mph - N/A   Partly Cloudy
3:56 PM 91.9 °F 95.4 °F 66.9 °F 44% 30.03 in 10.0 mi West 3.5 mph - N/A   Partly Cloudy
4:56 PM 91.0 °F 95.6 °F 69.1 °F 48% 30.01 in 10.0 mi Calm Calm - N/A   Partly Cloudy
5:56 PM 89.1 °F 96.0 °F 72.0 °F 57% 30.00 in 10.0 mi WNW 3.5 mph - N/A   Clear
6:56 PM 89.1 °F 96.0 °F 72.0 °F 57% 30.00 in 10.0 mi Calm Calm - N/A   Clear
7:56 PM 84.9 °F 91.4 °F 73.0 °F 67% 29.99 in 10.0 mi Calm Calm - N/A   Clear
8:56 PM 82.0 °F 85.5 °F 69.1 °F 65% 29.99 in 9.0 mi NW 3.5 mph - N/A   Clear
9:56 PM 79.0 °F - 73.9 °F 84% 30.00 in 9.0 mi Calm Calm - N/A   Clear
10:56 PM 75.0 °F - 71.1 °F 87% 29.99 in 9.0 mi Calm Calm - N/A   Clear
11:56 PM 73.9 °F - 71.1 °F 91% 29.99 in 9.0 mi Calm Calm - N/A   Clear